Find EO-1

NORAD ID: 26619 Int'l Des: 2000-075 Owner: GSFC Country: US operational
LEOCIRCULARRETROGRADESSO

Live Position

Loading 3D Globe...

About EO-1

Description loading...

Upcoming Passes

Passes for default location (London). Set your location on the main map for personalized predictions.

Altitude History

Loading altitude history...

Two-Line Element Set

1 26619U 00075A 26105.88098654 .00000350 00000-0 67909-4 0 9991
2 26619 98.1119 63.1556 0008375 333.7907 26.2874 14.69115745637442
Epoch: Apr 15, 2026 • Age: 14 hours

Current Status

Altitude 678.9 km
Velocity 7.51 km/s
Sub-Earth Point -32.00°S, 133.72°W
Launch Date Nov 21, 2000
Age 25.3 years
Type other

Technical Details

Classification Payload
Mass 588.00 kg
Dry Mass 566.00 kg
Total Mass 588.00 kg
Length 0.70 m
Diameter 1.30 m
Span 5.00 m
Shape Hex Cyl + Pan
Manufacturer SWALES
Bus Type ATK-A200
Phase Status In Orbit
Owner/State GSFC/US

Most Searched